Location: Newark
(48.5667°N, 12.8167°E)
Time: 07:57:10
(UTC+00:00)

METEOR M2 - Pass Details

Date: 25 November 2019
Orbit: 818 x 828 km, 98.5° (Epoch: 10 December)

Event Time Altitude Azimuth Distance (km) Brightness Sun altitude
Exits shadow 17:57:04 16° 8° (N) 2,058 ? -25.5°
Drops below altitude 10° 17:58:11 10° 2° (N) 2,433 ? -25.6°
Sets 18:00:44 0° 353° (N) 3,369 ? -26.1°
